Regional Weather Roundup
Issued by NWS

Home | Current Version | Previous Version | Text Only | Print | Product List | Glossary On
Versions: 1 2 3 4 5 6 7 8 9 10 11 12 13 14 15 16 17 18 19 20 21 22 23 24 25 26 27 28 29 30 31 32 33 34 35 36 37 38 39 40 41 42 43 44 45 46 47 48 49 50
000
ASUS45 KTFX 241010
RWRMT
MONTANA REGIONAL WEATHER ROUNDUP
NATIONAL WEATHER SERVICE GREAT FALLS MT
400 AM MDT SAT JUN 24 2017

NOTE: "FAIR" INDICATES FEW OR NO CLOUDS BELOW 12000 FEET WITH NO
SIGNIFICANT WEATHER AND/OR OBSTRUCTIONS TO VISIBILITY.

MTZ001>007-043-241100-
WEST OF THE DIVIDE

CITY           SKY/WX    TMP DP  RH WIND       PRES   REMARKS
KALISPELL      CLEAR     46  43  89 CALM      30.24S
MISSOULA       CLEAR     49  39  68 CALM      30.26S
BUTTE          CLEAR     40  33  76 SE5       30.35R
MULLAN PASS    CLEAR     54  27  35 N6        30.34S
ANACONDA         N/A     43  34  70 SW6       30.34R
DEER LODGE       N/A     48  37  66 CALM      30.35R
EUREKA           N/A     46  39  76 MISG      30.25S
HAMILTON         N/A     48  39  71 CALM      30.27
$$

MTZ008-052>055-241100-
SOUTHWEST MONTANA

CITY           SKY/WX    TMP DP  RH WIND       PRES   REMARKS
BOZEMAN        CLEAR     47  38  71 CALM      30.32R
DILLON         CLEAR     47  34  60 E5        30.31R
W YELLOWSTONE  CLEAR     30  27  86 CALM      30.37S
ENNIS          CLEAR     41  34  75 SE6       30.37S
THREE FORKS      N/A     44  38  79 CALM      30.27R
$$

MTZ009-010-012-014-046-048-049-054-241100-
EAST SLOPES AND CENTRAL MONTANA

CITY           SKY/WX    TMP DP  RH WIND       PRES   REMARKS
CUT BANK       MOCLDY    47  42  83 N10       30.32R
GREAT FALLS    CLOUDY    52  41  66 SW6       30.32S
MALMSTROM AFB  CLOUDY    52  46  78 SW6       30.31S
HELENA         CLEAR     50  39  66 W3        30.30S
CHOTEAU          N/A     43  41  93 SW5       30.34S
$$

MTZ011-013-016-021-045-047-050-051-241100-
NORTH CENTRAL MONTANA

CITY           SKY/WX    TMP DP  RH WIND       PRES   REMARKS
HAVRE          CLEAR     40  36  86 SW7       30.29R
LEWISTOWN      PTCLDY    46  38  73 SE5       30.32S
N BAR RANCH    CLOUDY    46  37  71 NW5       30.34S
CHINOOK          N/A     43  37  81 CALM      30.28R
$$

MTZ017>020-022>027-061-062-241100-
NORTHEAST MONTANA

CITY           SKY/WX    TMP DP  RH WIND       PRES   REMARKS
GLASGOW        CLEAR     45  35  68 E5        30.24R
JORDAN           N/A     43  29  57 W8        30.24S
SIDNEY         CLEAR     43  34  70 NW7       30.22R
WOLF POINT     CLEAR     38  32  79 CALM      30.25R
MALTA          PTCLDY    41  37  87 W3        30.26R
PLENTYWOOD       N/A     39  34  81 CALM      30.22R
POPLAR           N/A     45  36  70 W5        30.24R
$$

MTZ028>42-056>058-241100-
SOUTHCENTRAL AND SOUTHEAST MONTANA

CITY           SKY/WX    TMP DP  RH WIND       PRES   REMARKS
BAKER          CLEAR     41  30  65 N5        30.22S
BILLINGS       LGT RAIN  58  42  55 W6        30.29S
LIVINGSTON     CLEAR     37  33  85 NW3       30.32S
MILES CITY     CLEAR     47  28  47 W8        30.24S
BIG TIMBER     CLEAR     46  37  71 CALM      30.35R
FORSYTH          N/A     50  32  50 CALM      30.25S
ROUNDUP          N/A     55  33  43 W5        30.19R
$$

REGIONAL REPORTS...DAKOTAS

CITY           SKY/WX    TMP DP  RH WIND       PRES   REMARKS
WILLISTON      PTCLDY    45  35  68 NW12      30.19S
MINOT          PTCLDY    45  41  86 W13       30.10R
DICKINSON      CLOUDY    43  35  73 NW6       30.16S
CROSBY           N/A     39  37  93 NW10      30.19R
WATFORD CITY     N/A     43  36  75 W7        30.18R
BISMARCK       CLOUDY    49  43  80 W5        30.12R
GRAND FORKS    CLOUDY    52  43  71 W10       29.96S
FARGO          MOCLDY    49  41  74 W9        29.99F
BUFFALO SD       N/A     44  30  57 NW10      30.15F
RAPID CITY     PTCLDY    48  29  47 NW8       30.24F
$$

REGIONAL REPORTS...WYOMING/IDAHO/WASHINGTON

CITY           SKY/WX    TMP DP  RH WIND       PRES   REMARKS
GILLETTE       CLEAR     44  37  76 CALM      30.29S
SHERIDAN       PTCLDY    47  42  83 SW8       30.29F
BUFFALO WY     CLEAR     48  34  58 NW6       30.32F
CODY           CLEAR     47  35  63 SW6       30.34F
YELLOWSTONE LA   N/A     30  26  85 CALM      30.42R
IDAHO FALLS    CLEAR     44  42  93 N5        30.23S
SALMON         CLEAR     45  39  81 CALM      30.24S
BOISE          CLEAR     58  38  47 E3        30.13S
SPOKANE        CLEAR     59  38  45 CALM      30.20S
$$

REGIONAL REPORTS...ALBERTA

CITY           SKY/WX    TMP DP  RH WIND       PRES   REMARKS
EDMONTON       PTCLDY    48  43  81 W2        30.24S
CALGARY        MOCLDY    54  41  62 SW6       30.31S
LETHBRIDGE     MOCLDY    54  45  71 N8        30.31S
MEDICINE HAT   PTCLDY    45  41  87 S2        30.27S
WATERTON GATE    N/A     41  39  93 N3          N/A
MILK RIVER       N/A     50  46  87 NW6         N/A
ONEFOUR          N/A     48  39  71 NW7         N/A
$$

REGIONAL REPORTS...SASKATCHEWAN

CITY           SKY/WX    TMP DP  RH WIND       PRES   REMARKS
SWIFT CURRENT  CLEAR     39  36  87 S10       30.24R
REGINA         PTCLDY    34  34 100 NW7       30.22R WCI  28
SASKATOON      PTCLDY    36  36 100 S2        30.26R
VAL MARIE        N/A     32  30  93 E6          N/A  WCI  26
ROCKGLEN         N/A     41  34  75 NW3         N/A
ASSINIBOIA       N/A     46  43  87 W7          N/A
$$



USA.gov is the U.S. government's official web portal to all federal, state and local government web resources and services.